Find Starlink 31404

NORAD ID: 59521 Int'l Des: 2024-073 Owner: SPXS Country: US Constellation: starlink operational
LEOCIRCULAR

Live Position

Loading 3D Globe...

About Starlink 31404

Description loading...

Upcoming Passes

Passes for default location (London). Set your location on the main map for personalized predictions.

Altitude History

Loading altitude history...

Two-Line Element Set

1 59521U 24073L 26124.93443723 -.00032633 00000-0 -11850-2 0 9994
2 59521 43.0023 0.7096 0001573 329.3192 30.7567 15.27483863114778
Epoch: May 4, 2026 • Age: 15 hours

Current Status

Altitude 486.4 km
Velocity 7.62 km/s
Sub-Earth Point -12.26°S, 125.94°E
Launch Date Apr 17, 2024
Age 2 years
Type internet

Technical Details

Classification Payload
Mass 730.00 kg
Dry Mass 700.00 kg
Total Mass 730.00 kg
Length 0.30 m
Diameter 4.10 m
Span 29.00 m
Shape Box + pan
Manufacturer SPXS
Bus Type Starlink V2M
Phase Status In Orbit
Owner/State SPXS/US

Most Searched